Home > Time Zones > World Clock > Weather > Ghana > Accra > Past weeks

Flag for Ghana Weather past 2 weeks in Accra, Ghana

Now
88 °F

Passing clouds.


Feels Like: 102 °F
Forecast: N/A
Wind: 14 mph from Southwest

Location: Accra Airport


UV Index: N/A

Visibility: N/A


Pressure: 29.80 "Hg

Humidity: 75%

Dew point: 79 °F

Location of AccraLocation

Historic Weather in Accra

°F

Accra temperature yesterday

Maximum temperature yesterday: 90 °F (at 11:55 AM)
Minimum temperature yesterday: 77 °F (at 6:02 AM)
Average temperature yesterday: 84 °F

Past Weeks' High & Low Weather Summary

 TemperatureHumidityPressure
High91 °F (Apr 20, 11:47 AM)94% (Apr 11, 9:54 PM)30.12 "Hg (Apr 11, 9:54 PM)
Low73 °F (Apr 10, 10:55 AM)59% (Apr 19, 12:00 PM)29.74 "Hg (Apr 10, 2:54 PM)
Average83 °F80%29.84 "Hg
* Reported Apr 9 11:55 AM — Apr 23 1:00 PM, Accra, Weather by CustomWeather, © 2014

Note: Actual official high and low records may vary slightly from our data, if they occured in-between our weather recording intervals... More about our weather records

Advertising

Historic Weather Conditions — Data for Previous 24 hours

 ConditionsComfort  
Time TempWeatherWind HumidityBarometerVisibility
1:00 PM
Apr 23
88 °FPassing clouds.13 mph70%29.86 "HgN/A
11:54 AM86 °FPassing clouds.14 mph70%29.86 "HgN/A
10:56 AM84 °FPassing clouds.13 mph74%29.89 "HgN/A
9:56 AM84 °FPartly sunny.13 mph74%29.89 "HgN/A
8:57 AM82 °FPassing clouds.9 mph84%29.89 "HgN/A
8:03 AM82 °FThunderstorms. Passing clouds.12 mph79%29.89 "HgN/A
7:00 AM79 °FPassing clouds.15 mph89%29.86 "HgN/A
5:59 AM79 °FSunny.9 mph89%29.86 "Hg10 mi
4:55 AM79 °FPassing clouds.7 mph89%29.83 "HgN/A
3:56 AM81 °FPassing clouds.6 mph89%29.80 "HgN/A
2:59 AM81 °FPartly cloudy.8 mph89%29.80 "HgN/A
2:02 AM81 °FClear.7 mph89%29.80 "Hg10 mi
1:00 AM81 °FClear.9 mph89%29.83 "Hg10 mi
11:55 PM
Apr 22
82 °FPassing clouds.10 mph84%29.86 "HgN/A
10:54 PM82 °FClear.8 mph84%29.86 "Hg10 mi
10:00 PM82 °FPassing clouds.10 mph84%29.89 "HgN/A
8:56 PM84 °FPassing clouds.14 mph79%29.86 "HgN/A
8:00 PM84 °FPassing clouds.13 mph84%29.83 "HgN/A
6:59 PM84 °FPartly cloudy.12 mph79%29.80 "HgN/A
5:56 PM84 °FPassing clouds.13 mph84%29.80 "HgN/A
4:55 PM84 °FPassing clouds.14 mph84%29.80 "HgN/A
3:56 PM86 °FPassing clouds.16 mph75%29.77 "HgN/A
2:55 PM88 °FSunny.14 mph70%29.80 "Hg10 mi
Weather by CustomWeather, © 2014

See weather overview